Regional Weather Roundup
Issued by NWS

Home | Current Version | Previous Version | Text Only | Print | Product List | Glossary On
Versions: 1 2 3 4 5 6 7 8 9 10 11 12 13 14 15 16 17 18 19 20 21 22 23 24 25 26 27 28 29 30 31 32 33 34 35 36 37 38 39 40 41 42 43 44 45 46 47 48 49 50
267
ASUS43 KDTX 200010
RWRMI
MICHIGAN HOURLY REGIONAL WEATHER ROUNDUP
NATIONAL WEATHER SERVICE DETROIT/PONTIAC MI
ISSUED BY NATIONAL WEATHER SERVICE GRAND RAPIDS MI
700 PM EST THU JAN 19 2017

NOTE: "FAIR" INDICATES FEW OR NO CLOUDS BELOW 12,000 FEET WITH NO
SIGNIFICANT WEATHER AND/OR OBSTRUCTION TO VISIBILITY.

MIZ047>049-052>055-059>063-066>070-074>076-081>083-200100-
SOUTHEAST LOWER MICHIGAN

CITY           SKY/WX    TMP DP  RH WIND       PRES   REMARKS
ADRIAN         CLOUDY    34  33  96 SE3       29.95F
6HR MIN TEMP:  34; 6HR MAX TEMP:  36;

ALMA           CLOUDY    33  32  96 CALM      29.93S FOG
ANN ARBOR      MOCLDY    33  32  96 E3        29.94F FOG
BAD AXE        CLOUDY    32  32  99 CALM      29.96F FOG
6HR MIN TEMP:  32; 6HR MAX TEMP:  33;

DETROIT CITY   CLOUDY    34  33  96 S7        29.98S FOG     WCI  28
6HR MIN TEMP:  33; 6HR MAX TEMP:  38;

DETROIT        CLOUDY    36  33  89 E5        29.96F FOG     WCI  32
6HR MIN TEMP:  35; 6HR MAX TEMP:  38;

FLINT          CLOUDY    35  31  85 SE7       29.95R WCI  29
6HR MIN TEMP:  35; 6HR MAX TEMP:  42;

GROSSE ILE     CLOUDY    35  33  92 CALM      29.96F FOG
6HR MIN TEMP:  34; 6HR MAX TEMP:  35;

HILLSDALE      CLOUDY    34  32  93 SE6       29.91S FOG     WCI  29
HOWELL         CLOUDY    34  32  91 SE6       29.93S WCI  29

CITY           SKY/WX    TMP DP  RH WIND       PRES   REMARKS
JACKSON        CLOUDY    35  31  85 SE6       29.92S WCI  30
6HR MIN TEMP:  35; 6HR MAX TEMP:  43;

LANSING        CLOUDY    35  30  82 E3        29.93R
6HR MIN TEMP:  35; 6HR MAX TEMP:  41;

MASON          CLOUDY    37  33  87 SE5       29.93S WCI  33
6HR MIN TEMP:  36; 6HR MAX TEMP:  41;

MONROE         PTCLDY    36  34  94 CALM      29.94F FOG
6HR MIN TEMP:  35; 6HR MAX TEMP:  38;

MT. CLEMENS    CLOUDY    34  32  93 S8        29.96F FOG     WCI  27
6HR MIN TEMP:  32; 6HR MAX TEMP:  37;

PONTIAC        CLOUDY    35  31  85 SE5       29.93F WCI  31
6HR MIN TEMP:  35; 6HR MAX TEMP:  42;

PORT HOPE        N/A     33  31  92 SE3       29.96F
6HR MIN TEMP:  33; 6HR MAX TEMP:  35;

PORT HURON     CLOUDY    32  32 100 SE5       29.98F FOG     WCI  27
TRI CITIES     CLOUDY    34  33  96 NE3       29.94F
6HR MIN TEMP:  33; 6HR MAX TEMP:  38;

YPSILANTI      CLOUDY    36  33  89 SE6       29.96F WCI  31
6HR MIN TEMP:  34; 6HR MAX TEMP:  39;

$$
MIZ043>046-050>051-056>058-064>065-071>073-077>080-200100-
SOUTHWEST LOWER MICHIGAN

CITY           SKY/WX    TMP DP  RH WIND       PRES   REMARKS
BATTLE CREEK   PTCLDY    38  35  89 SE3       29.91S
6HR MIN TEMP:  38; 6HR MAX TEMP:  42;

BENTON HARBOR  CLOUDY    40  35  83 E6        29.87F
6HR MIN TEMP:  39; 6HR MAX TEMP:  42;

BIG RAPIDS     CLOUDY    36  32  87 CALM      29.89S
6HR MIN TEMP:  35; 6HR MAX TEMP:  41;

COLDWATER      PTCLDY    36  35  98 SE6       29.91F FOG     WCI  31
6HR MIN TEMP:  36; 6HR MAX TEMP:  39;

HOLLAND        MOCLDY    36  34  92 E3        29.91R
6HR MIN TEMP:  35; 6HR MAX TEMP:  39;

GRAND RAPIDS   CLOUDY    36  31  82 E3        29.92R
6HR MIN TEMP:  36; 6HR MAX TEMP:  41;

KALAMAZOO      CLOUDY    38  33  82 SE6       29.91S WCI  33
6HR MIN TEMP:  38; 6HR MAX TEMP:  41;

MARSHALL       CLOUDY    36  33  90 E3        29.91S
6HR MIN TEMP:  36; 6HR MAX TEMP:  43;

MOUNT PLEASANT CLOUDY    33  32  96 E3        29.91F FOG
6HR MIN TEMP:  33; 6HR MAX TEMP:  42;

MUSKEGON       CLOUDY    36  33  89 SE3       29.92R
6HR MIN TEMP:  36; 6HR MAX TEMP:  41;

STURGIS        CLOUDY    35  34  94 E6        29.89F FOG     WCI  30
6HR MIN TEMP:  35; 6HR MAX TEMP:  40;

$$
MIZ016>042-200100-
NORTHERN LOWER MICHIGAN

CITY           SKY/WX    TMP DP  RH WIND       PRES   REMARKS
ALPENA         CLOUDY    35  32  88 SE3       29.95F
6HR MIN TEMP:  35; 6HR MAX TEMP:  37;

BEAVER ISLAND  CLOUDY    35  35  99 S7        29.92F FOG     WCI  29
6HR MIN TEMP:  35; 6HR MAX TEMP:  36;

BELLAIRE       CLOUDY    33  32  96 CALM      29.92F
6HR MIN TEMP:  33; 6HR MAX TEMP:  37;

CADILLAC       CLOUDY    33  32  95 NE3       29.87F FOG
CHARLEVOIX     CLOUDY    35  35  99 CALM      29.96F FOG
6HR MIN TEMP:  35; 6HR MAX TEMP:  35;

GAYLORD        CLOUDY    35  31  85 S5        29.90F FOG     WCI  31
6HR MIN TEMP:  35; 6HR MAX TEMP:  36;

HOUGHTON LAKE  CLOUDY    32  31  96 E5        29.90F FOG     WCI  27
6HR MIN TEMP:  31; 6HR MAX TEMP:  35;

MANISTEE       CLOUDY    33  31  92 W5        29.90F FOG     WCI  29
OSCODA         CLOUDY    35  34  94 S7        29.95F FOG     WCI  29
6HR MIN TEMP:  35; 6HR MAX TEMP:  37;

PELLSTON       CLOUDY    34  32  92 CALM      29.93F FOG
6HR MIN TEMP:  34; 6HR MAX TEMP:  36;

TRAVERSE CITY  CLOUDY    35  32  88 CALM      29.91F
6HR MIN TEMP:  35; 6HR MAX TEMP:  38;

LUDINGTON      CLOUDY    34  33  99 W3        29.90S FOG
6HR MIN TEMP:  32; 6HR MAX TEMP:  40;

$$
MIZ007>008-015-200100-
EASTERN UPPER MICHIGAN

CITY           SKY/WX    TMP DP  RH WIND       PRES   REMARKS
KINROSS        MIX PCPN  33  33 100 S8        29.92F FOG     WCI  26
6HR MIN TEMP:  33; 6HR MAX TEMP:  36; 6HR PCP: TRACE;

MACKINAC ISLAN FOG       33  33 100 CALM      29.93F VSB 3/4
6HR MIN TEMP:  33; 6HR MAX TEMP:  35;

NEWBERRY       FOG       33  32  96 S13G20    29.88S VSB 1/4 WCI  24
6HR MIN TEMP:  32; 6HR MAX TEMP:  33;

S. S. MARIE    CLOUDY    35  32  88 SE8       29.91F FOG     WCI  29
6HR MIN TEMP:  35; 6HR MAX TEMP:  37;

$$
MIZ004>006-011>014-085-200100-
CENTRAL UPPER MICHIGAN

CITY           SKY/WX    TMP DP  RH WIND       PRES   REMARKS
MANISTIQUE     FOG       32  32  99 SW9       29.89S VSB 1/4 WCI  25
6HR MIN TEMP:  31; 6HR MAX TEMP:  32;

ESCANABA       FOG       32  32 100 S6        29.89S VSB 1/2 WCI  26
6HR MIN TEMP:  32; 6HR MAX TEMP:  34;

SAWYER-GWINN   FOG       32  32 100 SW10      29.83S VSB 1/2 WCI  24
$$
MIZ001>003-009>011-084-200100-
WESTERN UPPER MICHIGAN

CITY           SKY/WX    TMP DP  RH WIND       PRES   REMARKS
IRON MOUNTAIN  CLOUDY    32  30  92 SE6       29.83S FOG     WCI  26
6HR MIN TEMP:  32; 6HR MAX TEMP:  39;

HOUGHTON       FOG       32  30  92 E5        29.79R VSB 3/4 WCI  27
6HR MIN TEMP:  33; 6HR MAX TEMP:  39;

COPPER HARBOR    N/A     31  30  96 CALM      29.79S
6HR MIN TEMP:  30; 6HR MAX TEMP:  39;

IRONWOOD       CLEAR     45  34  65 S7        29.77S
6HR MIN TEMP:  41; 6HR MAX TEMP:  51;

$$

ABBREVIATIONS USED IN REMARKS
   TC - TEMPERATURE IN CELSIUS
  WCI - WIND CHILL INDEX
   HX - HEAT INDEX
  VSB - VISIBILITY





USA.gov is the U.S. government's official web portal to all federal, state and local government web resources and services.